Location: ??????
(55.4348°N, 39.2112°E)
Time: 09:14:56
(UTC+00:00)

CZ-2C R/B - Pass Details

Date: 14 April 2024
Orbit: 666 x 779 km, 98.4° (Epoch: 19 May)

Event Time Altitude Azimuth Distance (km) Brightness Sun altitude
Rises 00:42:58 0° 18° (NNE) 3,259 6.8 -13.0°
Reaches altitude 10° 00:45:21 10° 24° (NNE) 2,336 6.0 -12.7°
Maximum altitude 00:50:23 50° 100° (E) 988 3.4 -12.1°
Drops below altitude 10° 00:55:23 10° 175° (S) 2,327 4.7 -11.6°
Sets 00:57:46 0° 181° (S) 3,246 5.4 -11.3°
